Weather History for LLBG - March, 2014

Change the Weather History Date:

Saturday, March 15, 2014

  Actual Average Record
Temperature  
Mean Temperature 56 °F -  
Max Temperature 64 °F 70 °F 96 °F (2013)
Min Temperature 48 °F 54 °F 46 °F (2004)
Degree Days  
Heating Degree Days 9    
Growing Degree Days 6 (Base 50)    
Moisture  
Dew Point 46 °F    
Average Humidity 70    
Maximum Humidity 87    
Minimum Humidity 42    
Precipitation  
Precipitation 0.00 in - - ()
Sea Level Pressure  
Sea Level Pressure 30.14 in    
Wind  
Wind Speed 4 mph ()    
Max Wind Speed 10 mph    
Max Gust Speed -    
Visibility 6.2 miles    
Events      
Averages and records for this station are not official NWS values.
T = Trace of Precipitation, MM = Missing Value Source: Averaged Metar Reports

Daily Weather History Graph

Daily Weather History Graph

Search for Another Location

Airport or City:

Trip Planner

Search our weather history database for the weather conditions in past years. The results will help you decide how hot, cold, wet, or windy it might be!

Date:

Astronomy

Mar. 15, 2014 Rise Set
Actual Time 5:51 AM IST 5:48 PM IST
Civil Twilight 5:26 AM IST 6:12 PM IST
Nautical Twilight 4:58 AM IST 6:41 PM IST
Astronomical Twilight 4:29 AM IST 7:09 PM IST
Moon 4:49 PM IST (3/15) 4:48 AM IST (3/15)
Length of Visible Light 12h 46m
Length of Day
11h 57m
Waxing Gibbous, 98% of the Moon is Illuminated
Mar 15
Waxing Gibbous
Mar 16
Full
Mar 24
Last Quarter
Mar 30
New
Apr 7
First Quarter

Hourly Weather History & Observations

Time (IST) Temp. Dew Point Humidity Pressure Visibility Wind Dir Wind Speed Gust Speed Precip Events Conditions
12:20 AM 50.0 °F 46.4 °F 87% 30.12 in 6.2 mi Variable 2.3 mph - N/A   Partly Cloudy
12:50 AM 50.0 °F 46.4 °F 87% 30.12 in 6.2 mi Variable 3.5 mph - N/A   Partly Cloudy
1:20 AM 50.0 °F 46.4 °F 87% 30.12 in 6.2 mi SE 4.6 mph - N/A   Partly Cloudy
1:50 AM 50.0 °F 46.4 °F 87% 30.12 in 6.2 mi Variable 3.5 mph - N/A   Scattered Clouds
2:00 AM 49 °F 46 °F 84% 30.13 in 6 mi 3.5 mph - -   Partly Cloudy
2:20 AM 50.0 °F 46.4 °F 87% 30.12 in 6.2 mi SSE 4.6 mph - N/A   Mostly Cloudy
2:50 AM 50.0 °F 46.4 °F 87% 30.09 in 6.2 mi Variable 2.3 mph - N/A   Scattered Clouds
3:20 AM 50.0 °F 46.4 °F 87% 30.09 in 6.2 mi ESE 4.6 mph - N/A   Partly Cloudy
3:50 AM 50.0 °F 46.4 °F 87% 30.12 in 6.2 mi Variable 2.3 mph - N/A   Partly Cloudy
4:20 AM 50.0 °F 46.4 °F 87% 30.12 in 6.2 mi Variable 3.5 mph - N/A   Partly Cloudy
4:50 AM 50.0 °F 46.4 °F 87% 30.12 in 6.2 mi Variable 1.2 mph - N/A   Partly Cloudy
5:00 AM 50 °F 46 °F 83% 30.14 in 6 mi 1.2 mph - -   Partly Cloudy
5:20 AM 50.0 °F 46.4 °F 87% 30.12 in 6.2 mi Variable 3.5 mph - N/A   Mostly Cloudy
5:50 AM 51.8 °F 46.4 °F 82% 30.15 in 6.2 mi SSE 4.6 mph - N/A   Scattered Clouds
6:20 AM 51.8 °F 46.4 °F 82% 30.15 in 6.2 mi Variable 3.5 mph - N/A   Scattered Clouds
6:50 AM 51.8 °F 46.4 °F 82% 30.15 in 6.2 mi Variable 3.5 mph - N/A   Partly Cloudy
7:20 AM 53.6 °F 48.2 °F 82% 30.15 in 6.2 mi Variable 3.5 mph - N/A   Partly Cloudy
7:50 AM 53.6 °F 48.2 °F 82% 30.18 in 6.2 mi South 4.6 mph - N/A   Partly Cloudy
8:00 AM 54 °F 48 °F 74% 30.19 in 6 mi South 4.6 mph - -   Mostly Cloudy
8:20 AM 55.4 °F 48.2 °F 77% 30.18 in - South 5.8 mph - N/A   Clear
8:50 AM 57.2 °F 50.0 °F 77% 30.18 in - South 5.8 mph - N/A   Clear
9:20 AM 60.8 °F 48.2 °F 63% 30.18 in 6.2 mi South 4.6 mph - N/A   Scattered Clouds
9:50 AM 62.6 °F 48.2 °F 59% 30.18 in 6.2 mi Variable 3.5 mph - N/A   Scattered Clouds
10:20 AM 62.6 °F 46.4 °F 55% 30.18 in 6.2 mi West 4.6 mph - N/A   Scattered Clouds
10:50 AM 62.6 °F 44.6 °F 52% 30.18 in 6.2 mi WNW 10.4 mph - N/A   Scattered Clouds
11:00 AM 62 °F 46 °F 45% 30.20 in 6 mi WNW 10.4 mph - -   Mostly Cloudy
11:20 AM 62.6 °F 46.4 °F 55% 30.18 in 6.2 mi WNW 8.1 mph - N/A   Mostly Cloudy
11:50 AM 62.6 °F 44.6 °F 52% 30.18 in 6.2 mi WNW 9.2 mph - N/A   Scattered Clouds
12:20 PM 62.6 °F 46.4 °F 55% 30.15 in 6.2 mi NW 9.2 mph - N/A   Scattered Clouds
12:50 PM 62.6 °F 44.6 °F 52% 30.15 in 6.2 mi WNW 8.1 mph - N/A   Mostly Cloudy
1:20 PM 62.6 °F 44.6 °F 52% 30.15 in 6.2 mi WNW 10.4 mph - N/A   Mostly Cloudy
1:50 PM 62.6 °F 44.6 °F 52% 30.15 in 6.2 mi WNW 8.1 mph - N/A   Mostly Cloudy
2:00 PM 63 °F 46 °F 42% 30.16 in 6 mi WNW 8.1 mph - -   Mostly Cloudy
2:20 PM 64.4 °F 44.6 °F 49% 30.15 in 6.2 mi WNW 9.2 mph - N/A   Mostly Cloudy
2:50 PM 62.6 °F 46.4 °F 55% 30.12 in 6.2 mi WNW 8.1 mph - N/A   Scattered Clouds
3:20 PM 62.6 °F 46.4 °F 55% 30.12 in 6.2 mi NW 5.8 mph - N/A   Scattered Clouds
3:50 PM 62.6 °F 46.4 °F 55% 30.12 in 6.2 mi NW 8.1 mph - N/A   Scattered Clouds
4:20 PM 62.6 °F 44.6 °F 52% 30.12 in 6.2 mi NW 8.1 mph - N/A   Scattered Clouds
4:50 PM 62.6 °F 46.4 °F 55% 30.12 in 6.2 mi WNW 9.2 mph - N/A   Partly Cloudy
5:00 PM 62 °F 46 °F 44% 30.14 in 6 mi WNW 9.2 mph - -   Scattered Clouds
5:20 PM 60.8 °F 46.4 °F 59% 30.12 in 6.2 mi WNW 9.2 mph - N/A   Partly Cloudy
5:50 PM 59.0 °F 46.4 °F 63% 30.12 in 6.2 mi WNW 5.8 mph - N/A   Partly Cloudy
6:20 PM 59.0 °F 46.4 °F 63% 30.12 in 6.2 mi NW 4.6 mph - N/A   Partly Cloudy
6:50 PM 57.2 °F 46.4 °F 67% 30.15 in - WNW 4.6 mph - N/A   Clear
7:20 PM 57.2 °F 46.4 °F 67% 30.15 in - Variable 2.3 mph - N/A   Clear
7:50 PM 57.2 °F 46.4 °F 67% 30.15 in - Variable 2.3 mph - N/A   Clear
8:00 PM 57 °F 46 °F 57% 30.16 in 6 mi 2.3 mph - -  
8:20 PM 55.4 °F 46.4 °F 72% 30.15 in - Variable 3.5 mph - N/A   Clear
8:50 PM 53.6 °F 46.4 °F 77% 30.15 in - Variable 2.3 mph - N/A   Clear
9:20 PM 53.6 °F 46.4 °F 77% 30.15 in - SE 4.6 mph - N/A   Clear
9:50 PM 53.6 °F 46.4 °F 77% 30.15 in - ESE 4.6 mph - N/A   Clear
10:20 PM 53.6 °F 46.4 °F 77% 30.15 in - SE 4.6 mph - N/A   Clear
10:50 PM 51.8 °F 46.4 °F 82% 30.15 in - ESE 4.6 mph - N/A   Clear
11:00 PM 52 °F 46 °F 71% 30.17 in 6 mi ESE 4.6 mph - -  
11:20 PM 51.8 °F 46.4 °F 82% 30.15 in - ESE 5.8 mph - N/A   Clear
11:50 PM 51.8 °F 44.6 °F 76% 30.12 in - East 5.8 mph - N/A   Clear